Date String (YYYY-MM-DD hh:mm:ss) UTC,Instrument flags,Ambient pressure (hPa),Sample flow (lpm),Bypass flow (lpm),Sample temperature (°C),Ambient temperature (°C),ASC tube jacket temperature (°C),LED temperature (°C),Box temperature (°C),Sample RH (%),Span deviation,Mass concentration (μg/m³),Mass concentration (μg/m³),Mass concentration (μg/m³)
DateTimeUTC,F1_M11,P_M11,Q1_M11,Q2_M11,T1_M11,T2_M11,T3_M11,T4_M11,T5_M11,U1_M11,ZSPAN_M11,X0_M11,X2_M11,X1_M11
2022-06-05 12:00:00,,0820.6,4.99,0.00,30.4,29.3,00.0,39.3,32.2,16.6,0000.0,0011.94,0004.08,0003.16
2022-06-05 12:01:00,,0820.6,4.99,0.00,30.4,29.3,00.0,39.3,32.2,16.7,0000.0,0012.36,0004.09,0003.15
2022-06-05 12:02:00,,0820.6,5.01,0.00,30.4,29.3,00.0,39.3,32.2,16.8,0000.0,0012.85,0004.05,0003.14
2022-06-05 12:03:00,,0820.6,5.01,0.00,30.4,29.3,00.0,39.3,32.2,16.7,0000.0,0013.69,0004.06,0003.13
2022-06-05 12:04:00,,0820.6,5.00,0.00,30.4,29.3,00.0,39.3,32.2,16.7,0000.0,0013.27,0004.04,0003.13
2022-06-05 12:05:00,,0820.6,5.00,0.00,30.4,29.3,00.0,39.3,32.2,16.9,0000.0,0012.93,0004.03,0003.11
2022-06-05 12:06:00,,0820.6,5.00,0.00,30.4,29.3,00.0,39.3,32.2,16.5,0000.0,0012.51,0004.01,0003.08
2022-06-05 12:07:00,,0820.7,4.99,0.00,30.4,29.3,00.0,39.3,32.2,16.5,0000.0,0012.75,0003.98,0003.07
2022-06-05 12:08:00,,0820.7,5.01,0.00,30.4,29.3,00.0,39.3,32.2,16.3,0000.0,0012.45,0003.96,0003.04
2022-06-05 12:09:00,,0820.7,4.99,0.00,30.4,29.2,00.0,39.3,32.2,16.1,0000.0,0011.86,0003.95,0003.02
2022-06-05 12:10:00,,0820.7,5.01,0.00,30.4,29.2,00.0,39.3,32.2,15.9,0000.0,0012.34,0003.96,0003.01
2022-06-05 12:11:00,,0820.7,5.00,0.00,30.4,29.2,00.0,39.3,32.2,15.7,0000.0,0012.99,0003.96,0003.00
2022-06-05 12:12:00,,0820.7,5.00,0.00,30.4,29.2,00.0,39.3,32.2,14.9,0000.0,0012.79,0003.97,0002.96
2022-06-05 12:13:00,,0820.7,5.01,0.00,30.4,29.2,00.0,39.3,32.2,14.6,0000.0,0012.18,0003.97,0002.93
2022-06-05 12:14:00,,0820.7,4.99,0.00,30.4,29.2,00.0,39.3,32.2,14.7,0000.0,0011.87,0004.00,0002.92
2022-06-05 12:15:00,,0820.7,5.00,0.00,30.4,29.2,00.0,39.3,32.2,14.6,0000.0,0011.84,0003.99,0002.88
2022-06-05 12:16:00,,0820.7,5.01,0.00,30.4,29.2,00.0,39.3,32.2,14.6,0000.0,0011.77,0003.97,0002.86
2022-06-05 12:17:00,,0820.7,5.01,0.00,30.4,29.2,00.0,39.3,32.2,15.0,0000.0,0011.07,0003.94,0002.83
2022-06-05 12:18:00,,0820.7,4.99,0.00,30.4,29.2,00.0,39.3,32.2,15.1,0000.0,0010.63,0003.92,0002.81
2022-06-05 12:19:00,,0820.7,5.00,0.00,30.4,29.2,00.0,39.3,32.2,14.8,0000.0,0010.20,0003.90,0002.78
2022-06-05 12:20:00,,0820.7,5.01,0.00,30.4,29.2,00.0,39.3,32.2,14.4,0000.0,0010.24,0003.88,0002.76
2022-06-05 12:21:00,,0820.7,5.00,0.00,30.4,29.2,00.0,39.3,32.2,14.0,0000.0,0010.12,0003.86,0002.72
2022-06-05 12:22:00,,0820.7,5.00,0.00,30.4,29.2,00.0,39.3,32.2,13.7,0000.0,0009.38,0003.83,0002.68
2022-06-05 12:23:00,,0820.7,5.00,0.00,30.4,29.2,00.0,39.3,32.2,13.4,0000.0,0009.84,0003.80,0002.63
2022-06-05 12:24:00,,0820.7,5.01,0.00,30.4,29.2,00.0,39.3,32.2,12.9,0000.0,0010.05,0003.80,0002.62
2022-06-05 12:25:00,,0820.7,5.00,0.00,30.4,29.2,00.0,39.3,32.2,12.9,0000.0,0009.79,0003.73,0002.57
2022-06-05 12:26:00,,0820.7,5.00,0.00,30.4,29.2,00.0,39.3,32.2,13.0,0000.0,0009.91,0003.73,0002.53
2022-06-05 12:27:00,,0820.7,4.99,0.00,30.4,29.2,00.0,39.3,32.2,13.1,0000.0,0010.11,0003.75,0002.52
2022-06-05 12:28:00,,0820.7,5.00,0.00,30.4,29.2,00.0,39.3,32.2,13.1,0000.0,0010.26,0003.79,0002.51
2022-06-05 12:29:00,,0820.7,4.99,0.00,30.4,29.2,00.0,39.3,32.2,13.3,0000.0,0010.19,0003.81,0002.49
2022-06-05 12:30:00,,0820.8,5.00,0.00,30.4,29.2,00.0,39.3,32.2,13.3,0000.0,0010.96,0003.79,0002.46
2022-06-05 12:31:00,,0820.8,5.00,0.00,30.4,29.2,00.0,39.3,32.2,12.9,0000.0,0011.11,0003.77,0002.42
2022-06-05 12:32:00,,0820.8,5.00,0.00,30.3,29.2,00.0,39.3,32.2,12.8,0000.0,0010.56,0003.75,0002.38
2022-06-05 12:33:00,,0820.8,5.01,0.00,30.4,29.2,00.0,39.3,32.2,12.9,0000.0,0010.78,0003.77,0002.36
2022-06-05 12:34:00,,0820.7,5.00,0.00,30.3,29.2,00.0,39.3,32.2,12.8,0000.0,0011.13,0003.78,0002.35
2022-06-05 12:35:00,,0820.7,5.01,0.00,30.3,29.2,00.0,39.3,32.1,12.8,0000.0,0011.08,0003.75,0002.32
2022-06-05 12:36:00,,0820.7,5.00,0.00,30.3,29.2,00.0,39.3,32.1,12.8,0000.0,0010.83,0003.76,0002.32
2022-06-05 12:37:00,,0820.7,5.01,0.00,30.4,29.2,00.0,39.3,32.1,12.5,0000.0,0010.63,0003.72,0002.31
2022-06-05 12:38:00,,0820.8,4.99,0.00,30.3,29.2,00.0,39.3,32.2,12.7,0000.0,0010.56,0003.71,0002.30
2022-06-05 12:39:00,,0820.8,4.99,0.00,30.3,29.2,00.0,39.3,32.2,12.6,0000.0,0010.77,0003.67,0002.28
2022-06-05 12:40:00,,0820.8,5.00,0.00,30.3,29.2,00.0,39.3,32.1,12.4,0000.0,0011.18,0003.65,0002.24
2022-06-05 12:41:00,,0820.8,4.99,0.00,30.3,29.2,00.0,39.3,32.1,12.4,0000.0,0010.61,0003.67,0002.21
2022-06-05 12:42:00,,0820.9,5.01,0.00,30.4,29.2,00.0,39.3,32.1,13.1,0000.0,0010.33,0003.70,0002.21
2022-06-05 12:43:00,,0820.8,4.99,0.00,30.4,29.2,00.0,39.3,32.2,13.0,0000.0,0010.27,0003.70,0002.20
2022-06-05 12:44:00,,0820.8,5.01,0.00,30.3,29.2,00.0,39.3,32.1,11.9,0000.0,0010.12,0003.66,0002.17
2022-06-05 12:45:00,,0820.8,4.99,0.00,30.3,29.2,00.0,39.3,32.2,11.8,0000.0,0009.11,0003.57,0002.16
2022-06-05 12:46:00,,0820.8,5.01,0.00,30.3,29.2,00.0,39.3,32.2,11.8,0000.0,0009.10,0003.54,0002.14
2022-06-05 12:47:00,,0820.8,4.99,0.00,30.3,29.2,00.0,39.3,32.2,11.8,0000.0,0009.25,0003.54,0002.10
2022-06-05 12:48:00,,0820.9,5.00,0.00,30.4,29.2,00.0,39.3,32.2,12.4,0000.0,0009.37,0003.58,0002.10
2022-06-05 12:49:00,,0820.9,5.00,0.00,30.4,29.2,00.0,39.3,32.2,13.5,0000.0,0010.11,0003.59,0002.08
2022-06-05 12:50:00,,0820.9,5.00,0.00,30.4,29.2,00.0,39.3,32.2,13.8,0000.0,0009.89,0003.56,0002.04
2022-06-05 12:51:00,,0820.9,5.00,0.00,30.4,29.2,00.0,39.3,32.2,15.1,0000.0,0009.43,0003.55,0002.03
2022-06-05 12:52:00,,0820.9,5.00,0.00,30.4,29.3,00.0,39.3,32.2,15.0,0000.0,0009.20,0003.55,0002.03
2022-06-05 12:53:00,,0820.9,5.00,0.00,30.4,29.3,00.0,39.3,32.2,14.4,0000.0,0009.23,0003.51,0002.00
2022-06-05 12:54:00,,0820.9,5.00,0.00,30.4,29.3,00.0,39.3,32.2,13.0,0000.0,0009.39,0003.51,0001.99
2022-06-05 12:55:00,,0820.8,5.01,0.00,30.4,29.3,00.0,39.3,32.2,12.7,0000.0,0009.20,0003.50,0001.99
2022-06-05 12:56:00,,0820.8,5.01,0.00,30.4,29.3,00.0,39.3,32.2,13.0,0000.0,0009.50,0003.54,0001.99
2022-06-05 12:57:00,,0820.9,4.99,0.00,30.4,29.3,00.0,39.3,32.2,11.8,0000.0,0009.86,0003.58,0001.98
2022-06-05 12:58:00,,0820.9,4.99,0.00,30.4,29.3,00.0,39.3,32.2,11.6,0000.0,0009.69,0003.54,0001.99
2022-06-05 12:59:00,,0820.9,4.99,0.00,30.4,29.3,00.0,39.3,32.2,11.6,0000.0,0009.58,0003.50,0001.98
